Back to catalog

CZ-6A DEB

AlivePO
NORAD 54282·DEBRIS·🇨🇳 China

Launched Nov 11, 2022 from Taiyuan Satellite Launch Center

Loading…

Next Passes (next 24 hours)

TLE

FreshSource: Space-Track

Epoch: Sep 14, 2026, 22:12 UTC

1 54282U 22151Z   26257.92559104  .00016552  00000-0  20028-2 0  9992
2 54282  98.5760 319.8395 0049774   4.9640 355.2055 14.82869870203159

Track CZ-6A DEB in real time with AllMySat

Download on the App Store